Regional Weather Roundup
Issued by NWS

Home | Current Version | Previous Version | Graphics & Text | Print | Product List | Glossary On
Versions: 1 2 3 4 5 6 7 8 9 10 11 12 13 14 15 16 17 18 19 20 21 22 23 24 25 26 27 28 29 30 31 32 33 34 35 36 37 38 39 40 41 42 43 44 45 46 47 48 49 50
000
ASUS43 KLOT 031803
RWRIL

ILLINOIS REGIONAL WEATHER ROUNDUP
NATIONAL WEATHER SERVICE CHICAGO/ROMEOVILLE IL
1200 PM CST SAT DEC 03 2016

NOTE: "FAIR" INDICATES FEW OR NO CLOUDS BELOW 12,000 FEET WITH NO
SIGNIFICANT WEATHER AND/OR OBSTRUCTIONS TO VISIBILITY.

* THESE STATIONS ARE NOT UNDER NWS QUALITY CONTROL. THEY ALSO MAY NOT
  REPORT WEATHER SUCH AS PRECIPITATION OR FOG.

ILZ001-002-007-009-015-016-024-031900-
NORTHWEST ILLINOIS

CITY           SKY/WX    TMP DP  RH WIND       PRES   REMARKS
MOLINE         CLOUDY    38  25  59 S7        30.36S WCI  33
6HR MIN TEMP:  34; 6HR MAX TEMP:  38;

STERLING*      CLOUDY    37  26  64 CALM      30.37R
$$

ILZ003-004-008-010-011-017-018-031900-
NORTH CENTRAL ILLINOIS

CITY           SKY/WX    TMP DP  RH WIND       PRES   REMARKS
ROCKFORD       CLOUDY    34  24  67 NW6       30.36S WCI  29
6HR MIN TEMP:  31; 6HR MAX TEMP:  34;

FREEPORT*      CLOUDY    33  25  72 CALM      30.35S
ROCHELLE*      CLOUDY    35  27  73 W3        30.36R
$$

ILZ005-006-012>014-019>023-031900-
NORTHEAST ILLINOIS

CITY           SKY/WX    TMP DP  RH WIND       PRES   REMARKS
CHICAGO-OHARE  CLOUDY    33  23  66 SW3       30.33S
6HR MIN TEMP:  32; 6HR MAX TEMP:  33;

CHICAGO-MIDWAY NOT AVBL
AURORA         CLOUDY    34  25  69 W7        30.37R WCI  28
6HR MIN TEMP:  32; 6HR MAX TEMP:  34;

LANSING*       CLOUDY    34  26  74 SW3       30.36R
WAUKEGAN       CLOUDY    33  23  66 W6        30.32S WCI  28
6HR MIN TEMP:  31; 6HR MAX TEMP:  33;

DUPAGE AIRPORT CLOUDY    33  23  66 W5        30.34S WCI  29
6HR MIN TEMP:  31; 6HR MAX TEMP:  33;

WHEELING       CLOUDY    33  23  66 W5        30.34F WCI  29
6HR MIN TEMP:  31; 6HR MAX TEMP:  33;

NORTHERLY ISL    N/A     34  22  61 W3          N/A
$$

LMZ740>746-031900-
SOUTHERN LAKE MICHIGAN

STATION/POSITION SKY/WX   TEMP    WIND        PRES    VSBY  WAVE
                          AIR SEA DIR/SP/G                  HT/PER
                          (F)     (DEG/KT/KT) (MB)    (MI)  (FT/S)
SOUTHERN BUOY              34 49  290/  6/  8 1026.7          1/ 3
HARRISON CRIB              34     290/  6/  9   N/A
BURNHAM HARBOR             34     260/  5/  8   N/A
CALUMET HARBOR             34     240/  6/  7 1026.7F
BURNS HARBOR               35     260/  8/ 11 1028.1R
MICHIGAN CITY              35     250/  9/ 10   N/A
$$

ILZ025>027-034>036-040-047-049-050-058-095>099-031900-
WEST-CENTRAL ILLINOIS

CITY           SKY/WX    TMP DP  RH WIND       PRES   REMARKS
QUINCY         SUNNY     41  32  70 SE8       30.35F
GALESBURG*     CLOUDY    35  27  70 CALM      30.36F
MACOMB*        CLOUDY    37  29  74 CALM      30.39F
JACKSONVILLE*  CLOUDY    39  32  76 E7        30.37S WCI  34
$$

ILZ028>032-037-038-041>044-048-051>054-059>061-031900-
CENTRAL ILLINOIS

CITY           SKY/WX    TMP DP  RH WIND       PRES   REMARKS
BLOOMINGTON    CLOUDY    35  26  69 N5        30.37R WCI  31
DECATUR        PTSUNNY   39  29  67 CALM      30.38S
PEORIA         CLOUDY    37  27  67 W6        30.38F WCI  32
6HR MIN TEMP:  33; 6HR MAX TEMP:  37;

SPRINGFIELD    PTSUNNY   40  29  64 CALM      30.38F
6HR MIN TEMP:  32; 6HR MAX TEMP:  40;

TAYLORVILLE    NOT AVBL
$$

ILZ033-039-045-046-055>057-062-063-031900-
EAST-CENTRAL ILLINOIS

CITY           SKY/WX    TMP DP  RH WIND       PRES   REMARKS
CHAMPAIGN      CLOUDY    37  27  67 VRB5      30.37F WCI  33
MATTOON        CLOUDY    39  29  67 CALM      30.37S
$$

ILZ079-100>102-031900-
SOUTHWEST ILLINOIS

CITY           SKY/WX    TMP DP  RH WIND       PRES   REMARKS
ALTON          CLOUDY    39  34  81 E6        30.37F WCI  35
BELLEVILLE     CLOUDY    41  35  76 SE6       30.35F
CAHOKIA*       CLOUDY    43  32  65 SE7       30.36F
SPARTA*        PTSUNNY   41  32  70 SE7       30.37F
$$

ILZ064>066-069>071-074>076-080>082-084>086-088>090-092>094-031900-
SOUTH-CENTRAL ILLINOIS

CITY           SKY/WX    TMP DP  RH WIND       PRES   REMARKS
CARBONDALE     CLOUDY    43  33  68 E8        30.36F
6HR MIN TEMP:  27; 6HR MAX TEMP:  43;

CAIRO*         CLOUDY    43  32  65 E9        30.35F
MARION         CLOUDY    45  32  61 SE5       30.38F
CENTRALIA*     CLOUDY    42  35  73 CALM      30.36F
SALEM*         CLOUDY    43  33  69 S3        30.37F
$$

ILZ067-068-072-073-078-083-087-091-031900-
SOUTHEAST ILLINOIS

CITY           SKY/WX    TMP DP  RH WIND       PRES   REMARKS
HARRISBURG*    CLOUDY    43  35  71 SE7       30.37F
ROBINSON*      CLOUDY    40  29  64 CALM      30.39F
CARMI*         CLOUDY    42  34  73 SE3       30.38F
$$

ABBREVIATIONS USED IN REMARKS
   TC - TEMPERATURE IN CELSIUS
  WCI - WIND CHILL INDEX
   HX - HEAT INDEX
  VSB - VISIBILITY
$$





USA.gov is the U.S. government's official web portal to all federal, state and local government web resources and services.